Location: �couen
(49.0206°N, 2.3831°E)
Time: 06:06:39
(UTC+00:00)

SL-16 R/B - Visible Passes

Search period start: 21 May 2022 00:00
Search period end: 31 May 2022 00:00
Orbit: 842 x 846 km, 71.0° (Epoch: 20 May)

Date Brightness Start Highest point End Pass type
(mag) Time Alt. Az. Time Alt. Az. Time Alt. Az.
21 May 3.3 00:24:01 17° WSW 00:27:52 39° NW 00:33:13 10° NNE visible
21 May 4.7 02:11:27 10° NW 02:13:42 12° NNW 02:15:57 10° N visible
21 May 2.7 22:27:38 32° SSE 22:29:24 40° ESE 22:34:39 10° NE visible
22 May 3.2 00:09:27 17° WSW 00:13:30 41° NW 00:18:52 10° NNE visible
22 May 4.7 01:56:56 10° NW 01:59:18 12° NNW 02:01:39 10° N visible
22 May 2.8 22:13:01 29° SSE 22:15:03 39° ESE 22:20:16 10° NE visible
22 May 3.2 23:54:49 15° WSW 23:59:07 42° NW 00:04:32 10° NNE visible
23 May 4.7 01:42:25 10° NW 01:44:53 13° NNW 01:47:21 10° N visible
23 May 2.8 21:58:18 26° SSE 22:00:42 37° ESE 22:05:53 10° NE visible
23 May 3.2 23:40:06 14° WSW 23:44:45 43° NW 23:50:10 10° NNE visible
24 May 4.8 01:27:54 10° NW 01:30:28 13° NNW 01:33:02 10° N visible
24 May 2.9 21:43:30 22° SSE 21:46:22 36° ESE 21:51:29 10° NE visible
24 May 3.2 23:25:18 12° SW 23:30:22 44° NW 23:35:49 10° NNE visible
25 May 4.8 01:13:24 10° WNW 01:16:04 13° NNW 01:18:44 10° N visible
25 May 2.9 21:28:34 18° SSE 21:32:01 35° ESE 21:37:07 10° NE visible
25 May 3.1 23:10:34 10° SW 23:16:00 46° NW 23:21:28 10° NNE visible
26 May 4.8 00:58:53 10° WNW 01:01:39 14° NNW 01:04:25 10° N visible
26 May 2.9 21:13:28 14° SSE 21:17:40 34° ESE 21:22:43 10° NE visible
26 May 3.1 22:56:09 10° SW 23:01:37 47° NW 23:07:07 10° NNE visible
27 May 4.8 00:44:23 10° WNW 00:47:14 14° NNW 00:50:06 10° N visible
27 May 3.0 20:58:22 10° SSE 21:03:19 32° ESE 21:08:19 10° NE visible
27 May 3.1 22:41:46 10° SW 22:47:15 49° NW 22:52:46 10° NNE visible
28 May 4.8 00:29:53 10° WNW 00:32:49 14° NNW 00:35:47 10° N visible
28 May 3.0 20:44:04 10° SSE 20:48:59 31° ESE 20:53:55 10° NE visible
28 May 3.0 22:27:22 10° SW 22:32:52 50° NW 22:38:24 10° NNE visible
29 May 4.9 00:15:23 10° WNW 00:18:25 14° NNW 00:21:28 10° N visible
29 May 3.0 20:29:47 10° SSE 20:34:38 30° ESE 20:39:31 10° NE visible
29 May 3.0 22:12:57 10° SW 22:18:29 52° NW 22:24:03 10° NNE visible
30 May 4.9 00:00:53 10° WNW 00:04:00 15° NNW 00:07:08 10° N visible
30 May 3.0 21:58:34 10° SW 22:04:07 53° NW 22:09:42 10° NNE visible
30 May 4.9 23:46:23 10° WNW 23:49:35 15° NNW 23:52:48 10° N visible
